Time,TemperatureF,DewpointF,PressureIn,WindDirection,WindDirectionDegrees,WindSpeedMPH,WindSpeedGustMPH,Humidity,HourlyPrecipIn,Conditions,Clouds,dailyrainin,SoftwareType,DateUTC
2013-03-06 00:00:00,46.7,18.4,30.28,South,180,0.0,-999.0,32,0.00,,,0.00,Wunderground v.1.15,2013-03-06 07:00:00,
2013-03-06 00:05:00,46.7,18.4,30.28,South,180,0.0,-999.0,32,0.00,,,0.00,Wunderground v.1.15,2013-03-06 07:05:00,
2013-03-06 00:10:00,46.7,18.4,30.28,South,180,0.0,-999.0,32,0.00,,,0.00,Wunderground v.1.15,2013-03-06 07:10:00,
2013-03-06 00:15:00,46.7,18.4,30.28,South,180,0.0,-999.0,32,0.00,,,0.00,Wunderground v.1.15,2013-03-06 07:15:00,
2013-03-06 00:20:00,46.7,18.4,30.28,South,180,0.0,-999.0,32,0.00,,,0.00,Wunderground v.1.15,2013-03-06 07:20:00,
2013-03-06 00:25:00,46.7,18.4,30.28,South,180,0.0,-999.0,32,0.00,,,0.00,Wunderground v.1.15,2013-03-06 07:25:00,
2013-03-06 00:30:00,46.7,18.4,30.28,South,180,0.0,-999.0,32,0.00,,,0.00,Wunderground v.1.15,2013-03-06 07:30:00,
2013-03-06 00:35:00,46.7,18.4,30.28,South,180,0.0,-999.0,32,0.00,,,0.00,Wunderground v.1.15,2013-03-06 07:35:00,
2013-03-06 00:40:00,46.7,18.4,30.28,South,180,0.0,-999.0,32,0.00,,,0.00,Wunderground v.1.15,2013-03-06 07:40:00,
2013-03-06 00:45:00,46.3,18.7,30.27,N/A,-737280,0.0,-999.0,33,0.00,,,0.00,Wunderground v.1.15,2013-03-06 07:45:00,
2013-03-06 00:50:00,46.3,18.7,30.27,N/A,-737280,0.0,-999.0,33,0.00,,,0.00,Wunderground v.1.15,2013-03-06 07:50:00,
2013-03-06 00:55:00,46.3,18.7,30.27,N/A,-737280,0.0,-999.0,33,0.00,,,0.00,Wunderground v.1.15,2013-03-06 07:55:00,
2013-03-06 01:00:00,46.3,18.7,30.27,N/A,-737280,0.0,-999.0,33,0.00,,,0.00,Wunderground v.1.15,2013-03-06 08:00:00,
2013-03-06 01:05:00,46.3,18.7,30.27,N/A,-737280,0.0,-999.0,33,0.00,,,0.00,Wunderground v.1.15,2013-03-06 08:05:00,
2013-03-06 01:10:00,46.3,18.7,30.27,N/A,-737280,0.0,-999.0,33,0.00,,,0.00,Wunderground v.1.15,2013-03-06 08:10:00,
2013-03-06 01:15:00,46.3,18.7,30.27,N/A,-737280,0.0,-999.0,33,0.00,,,0.00,Wunderground v.1.15,2013-03-06 08:15:00,
2013-03-06 01:20:00,46.3,18.7,30.27,N/A,-737280,0.0,-999.0,33,0.00,,,0.00,Wunderground v.1.15,2013-03-06 08:20:00,
2013-03-06 01:25:00,46.3,18.7,30.27,N/A,-737280,0.0,-999.0,33,0.00,,,0.00,Wunderground v.1.15,2013-03-06 08:25:00,
2013-03-06 01:30:00,46.3,18.7,30.27,N/A,-737280,0.0,-999.0,33,0.00,,,0.00,Wunderground v.1.15,2013-03-06 08:30:00,
2013-03-06 01:35:00,46.3,18.7,30.27,N/A,-737280,0.0,-999.0,33,0.00,,,0.00,Wunderground v.1.15,2013-03-06 08:35:00,
2013-03-06 01:40:00,46.3,18.7,30.27,N/A,-737280,0.0,-999.0,33,0.00,,,0.00,Wunderground v.1.15,2013-03-06 08:40:00,
2013-03-06 01:45:00,44.9,18.2,30.26,South,180,0.0,-999.0,34,0.00,,,0.00,Wunderground v.1.15,2013-03-06 08:45:00,
2013-03-06 01:50:00,44.9,18.2,30.26,South,180,0.0,-999.0,34,0.00,,,0.00,Wunderground v.1.15,2013-03-06 08:50:00,
2013-03-06 01:55:00,44.9,18.2,30.26,South,180,0.0,-999.0,34,0.00,,,0.00,Wunderground v.1.15,2013-03-06 08:55:00,
2013-03-06 02:00:00,44.9,18.2,30.26,South,180,0.0,-999.0,34,0.00,,,0.00,Wunderground v.1.15,2013-03-06 09:00:00,
2013-03-06 02:05:00,44.9,18.2,30.26,South,180,0.0,-999.0,34,0.00,,,0.00,Wunderground v.1.15,2013-03-06 09:05:00,
2013-03-06 02:10:00,44.9,18.2,30.26,South,180,0.0,-999.0,34,0.00,,,0.00,Wunderground v.1.15,2013-03-06 09:10:00,
2013-03-06 02:15:00,43.3,16.8,30.26,South,180,0.0,-999.0,34,0.00,,,0.00,Wunderground v.1.15,2013-03-06 09:15:00,
2013-03-06 02:20:00,43.3,16.8,30.26,South,180,0.0,-999.0,34,0.00,,,0.00,Wunderground v.1.15,2013-03-06 09:20:00,
2013-03-06 02:25:00,43.3,16.8,30.26,South,180,0.0,-999.0,34,0.00,,,0.00,Wunderground v.1.15,2013-03-06 09:25:00,
2013-03-06 02:30:00,43.3,16.8,30.26,South,180,0.0,-999.0,34,0.00,,,0.00,Wunderground v.1.15,2013-03-06 09:30:00,
2013-03-06 02:35:00,43.3,16.8,30.26,South,180,0.0,-999.0,34,0.00,,,0.00,Wunderground v.1.15,2013-03-06 09:35:00,
2013-03-06 02:40:00,43.3,16.8,30.26,South,180,0.0,-999.0,34,0.00,,,0.00,Wunderground v.1.15,2013-03-06 09:40:00,
2013-03-06 02:45:00,43.2,17.4,30.25,N/A,-737280,0.0,-999.0,35,0.00,,,0.00,Wunderground v.1.15,2013-03-06 09:45:00,
2013-03-06 02:50:00,43.2,17.4,30.25,N/A,-737280,0.0,-999.0,35,0.00,,,0.00,Wunderground v.1.15,2013-03-06 09:50:00,
2013-03-06 02:55:00,43.2,17.4,30.25,N/A,-737280,0.0,-999.0,35,0.00,,,0.00,Wunderground v.1.15,2013-03-06 09:55:00,
2013-03-06 03:00:00,43.2,17.4,30.25,N/A,-737280,0.0,-999.0,35,0.00,,,0.00,Wunderground v.1.15,2013-03-06 10:00:00,
2013-03-06 03:05:00,43.2,17.4,30.25,N/A,-737280,0.0,-999.0,35,0.00,,,0.00,Wunderground v.1.15,2013-03-06 10:05:00,
2013-03-06 03:10:00,43.2,17.4,30.25,N/A,-737280,0.0,-999.0,35,0.00,,,0.00,Wunderground v.1.15,2013-03-06 10:10:00,
2013-03-06 03:15:00,43.2,18.6,30.25,N/A,-737280,0.0,-999.0,37,0.00,,,0.00,Wunderground v.1.15,2013-03-06 10:15:00,
2013-03-06 03:20:00,43.2,18.6,30.25,N/A,-737280,0.0,-999.0,37,0.00,,,0.00,Wunderground v.1.15,2013-03-06 10:20:00,
2013-03-06 03:25:00,43.2,18.6,30.25,N/A,-737280,0.0,-999.0,37,0.00,,,0.00,Wunderground v.1.15,2013-03-06 10:25:00,
2013-03-06 03:30:00,43.2,18.6,30.25,N/A,-737280,0.0,-999.0,37,0.00,,,0.00,Wunderground v.1.15,2013-03-06 10:30:00,
2013-03-06 03:35:00,43.2,18.6,30.25,N/A,-737280,0.0,-999.0,37,0.00,,,0.00,Wunderground v.1.15,2013-03-06 10:35:00,
2013-03-06 03:40:00,43.2,18.6,30.25,N/A,-737280,0.0,-999.0,37,0.00,,,0.00,Wunderground v.1.15,2013-03-06 10:40:00,
2013-03-06 03:45:00,44.4,18.4,30.25,South,180,0.0,-999.0,35,0.00,,,0.00,Wunderground v.1.15,2013-03-06 10:45:00,
2013-03-06 03:50:00,44.4,18.4,30.25,South,180,0.0,-999.0,35,0.00,,,0.00,Wunderground v.1.15,2013-03-06 10:50:00,
2013-03-06 03:55:00,44.4,18.4,30.25,South,180,0.0,-999.0,35,0.00,,,0.00,Wunderground v.1.15,2013-03-06 10:55:00,
2013-03-06 04:00:00,44.4,18.4,30.25,South,180,0.0,-999.0,35,0.00,,,0.00,Wunderground v.1.15,2013-03-06 11:00:00,
2013-03-06 04:05:00,44.4,18.4,30.25,South,180,0.0,-999.0,35,0.00,,,0.00,Wunderground v.1.15,2013-03-06 11:05:00,
2013-03-06 04:10:00,44.4,18.4,30.25,South,180,0.0,-999.0,35,0.00,,,0.00,Wunderground v.1.15,2013-03-06 11:10:00,
2013-03-06 04:15:00,44.2,18.2,30.24,N/A,-737280,0.0,-999.0,35,0.00,,,0.00,Wunderground v.1.15,2013-03-06 11:15:00,
2013-03-06 04:20:00,44.2,18.2,30.24,N/A,-737280,0.0,-999.0,35,0.00,,,0.00,Wunderground v.1.15,2013-03-06 11:20:00,
2013-03-06 04:25:00,44.2,18.2,30.24,N/A,-737280,0.0,-999.0,35,0.00,,,0.00,Wunderground v.1.15,2013-03-06 11:25:00,
2013-03-06 04:30:00,44.2,18.2,30.24,N/A,-737280,0.0,-999.0,35,0.00,,,0.00,Wunderground v.1.15,2013-03-06 11:30:00,
2013-03-06 04:35:00,44.2,18.2,30.24,N/A,-737280,0.0,-999.0,35,0.00,,,0.00,Wunderground v.1.15,2013-03-06 11:35:00,
2013-03-06 04:40:00,44.2,18.2,30.24,N/A,-737280,0.0,-999.0,35,0.00,,,0.00,Wunderground v.1.15,2013-03-06 11:40:00,
2013-03-06 04:45:00,43.7,18.5,30.24,N/A,-737280,0.0,-999.0,36,0.00,,,0.00,Wunderground v.1.15,2013-03-06 11:45:00,
2013-03-06 04:50:00,43.7,18.5,30.24,N/A,-737280,0.0,-999.0,36,0.00,,,0.00,Wunderground v.1.15,2013-03-06 11:50:00,
2013-03-06 04:55:00,43.7,18.5,30.24,N/A,-737280,0.0,-999.0,36,0.00,,,0.00,Wunderground v.1.15,2013-03-06 11:55:00,
2013-03-06 05:00:00,43.7,18.5,30.24,N/A,-737280,0.0,-999.0,36,0.00,,,0.00,Wunderground v.1.15,2013-03-06 12:00:00,
2013-03-06 05:05:00,43.7,18.5,30.24,N/A,-737280,0.0,-999.0,36,0.00,,,0.00,Wunderground v.1.15,2013-03-06 12:05:00,
2013-03-06 05:10:00,43.7,18.5,30.24,N/A,-737280,0.0,-999.0,36,0.00,,,0.00,Wunderground v.1.15,2013-03-06 12:10:00,
2013-03-06 05:15:00,43.7,18.5,30.24,South,180,0.0,-999.0,36,0.00,,,0.00,Wunderground v.1.15,2013-03-06 12:15:00,
2013-03-06 05:20:00,43.7,18.5,30.24,South,180,0.0,-999.0,36,0.00,,,0.00,Wunderground v.1.15,2013-03-06 12:20:00,
2013-03-06 05:25:00,43.7,18.5,30.24,South,180,0.0,-999.0,36,0.00,,,0.00,Wunderground v.1.15,2013-03-06 12:25:00,
2013-03-06 05:30:00,43.7,18.5,30.24,South,180,0.0,-999.0,36,0.00,,,0.00,Wunderground v.1.15,2013-03-06 12:30:00,
2013-03-06 05:35:00,43.7,18.5,30.24,South,180,0.0,-999.0,36,0.00,,,0.00,Wunderground v.1.15,2013-03-06 12:35:00,
2013-03-06 05:40:00,43.7,18.5,30.24,South,180,0.0,-999.0,36,0.00,,,0.00,Wunderground v.1.15,2013-03-06 12:40:00,
2013-03-06 05:45:00,43.6,19.0,30.24,South,180,0.0,-999.0,37,0.00,,,0.00,Wunderground v.1.15,2013-03-06 12:45:00,
2013-03-06 05:50:00,43.6,19.0,30.24,South,180,0.0,-999.0,37,0.00,,,0.00,Wunderground v.1.15,2013-03-06 12:50:00,
2013-03-06 05:55:00,43.6,19.0,30.24,South,180,0.0,-999.0,37,0.00,,,0.00,Wunderground v.1.15,2013-03-06 12:55:00,
2013-03-06 06:00:00,43.6,19.0,30.24,South,180,0.0,-999.0,37,0.00,,,0.00,Wunderground v.1.15,2013-03-06 13:00:00,
2013-03-06 06:05:00,43.6,19.0,30.24,South,180,0.0,-999.0,37,0.00,,,0.00,Wunderground v.1.15,2013-03-06 13:05:00,
2013-03-06 06:10:00,43.6,19.0,30.24,South,180,0.0,-999.0,37,0.00,,,0.00,Wunderground v.1.15,2013-03-06 13:10:00,
2013-03-06 06:15:00,43.8,19.2,30.24,South,180,0.0,-999.0,37,0.00,,,0.00,Wunderground v.1.15,2013-03-06 13:15:00,
2013-03-06 06:20:00,43.8,19.2,30.24,South,180,0.0,-999.0,37,0.00,,,0.00,Wunderground v.1.15,2013-03-06 13:20:00,
2013-03-06 06:25:00,43.8,19.2,30.24,South,180,0.0,-999.0,37,0.00,,,0.00,Wunderground v.1.15,2013-03-06 13:25:00,
2013-03-06 06:30:00,43.8,19.2,30.24,South,180,0.0,-999.0,37,0.00,,,0.00,Wunderground v.1.15,2013-03-06 13:30:00,
2013-03-06 06:35:00,43.8,19.2,30.24,South,180,0.0,-999.0,37,0.00,,,0.00,Wunderground v.1.15,2013-03-06 13:35:00,
2013-03-06 06:40:00,43.8,19.2,30.24,South,180,0.0,-999.0,37,0.00,,,0.00,Wunderground v.1.15,2013-03-06 13:40:00,
2013-03-06 06:45:00,44.5,19.8,30.24,South,180,1.0,-999.0,37,0.00,,,0.00,Wunderground v.1.15,2013-03-06 13:45:00,
2013-03-06 06:50:00,44.5,19.8,30.24,South,180,1.0,-999.0,37,0.00,,,0.00,Wunderground v.1.15,2013-03-06 13:50:00,
2013-03-06 06:55:00,44.5,19.8,30.24,South,180,1.0,-999.0,37,0.00,,,0.00,Wunderground v.1.15,2013-03-06 13:55:00,
2013-03-06 07:00:00,44.5,19.8,30.24,South,180,1.0,-999.0,37,0.00,,,0.00,Wunderground v.1.15,2013-03-06 14:00:00,
2013-03-06 07:05:00,44.5,19.8,30.24,South,180,1.0,-999.0,37,0.00,,,0.00,Wunderground v.1.15,2013-03-06 14:05:00,
2013-03-06 07:10:00,44.5,19.8,30.24,South,180,1.0,-999.0,37,0.00,,,0.00,Wunderground v.1.15,2013-03-06 14:10:00,
2013-03-06 07:15:00,46.2,20.0,30.24,South,180,2.0,-999.0,35,0.00,,,0.00,Wunderground v.1.15,2013-03-06 14:15:00,
2013-03-06 07:20:00,46.2,20.0,30.24,South,180,2.0,-999.0,35,0.00,,,0.00,Wunderground v.1.15,2013-03-06 14:20:00,
2013-03-06 07:25:00,46.2,20.0,30.24,South,180,2.0,-999.0,35,0.00,,,0.00,Wunderground v.1.15,2013-03-06 14:25:00,
2013-03-06 07:30:00,46.2,20.0,30.24,South,180,2.0,-999.0,35,0.00,,,0.00,Wunderground v.1.15,2013-03-06 14:30:00,
2013-03-06 07:35:00,46.2,20.0,30.24,South,180,2.0,-999.0,35,0.00,,,0.00,Wunderground v.1.15,2013-03-06 14:35:00,
2013-03-06 07:40:00,46.2,20.0,30.24,South,180,2.0,-999.0,35,0.00,,,0.00,Wunderground v.1.15,2013-03-06 14:40:00,
2013-03-06 07:45:00,48.6,20.0,30.24,South,180,2.0,-999.0,32,0.00,,,0.00,Wunderground v.1.15,2013-03-06 14:45:00,
2013-03-06 07:50:00,48.6,20.0,30.24,South,180,2.0,-999.0,32,0.00,,,0.00,Wunderground v.1.15,2013-03-06 14:50:00,
2013-03-06 07:55:00,48.6,20.0,30.24,South,180,2.0,-999.0,32,0.00,,,0.00,Wunderground v.1.15,2013-03-06 14:55:00,
2013-03-06 08:00:00,48.6,20.0,30.24,South,180,2.0,-999.0,32,0.00,,,0.00,Wunderground v.1.15,2013-03-06 15:00:00,
2013-03-06 08:05:00,48.6,20.0,30.24,South,180,2.0,-999.0,32,0.00,,,0.00,Wunderground v.1.15,2013-03-06 15:05:00,
2013-03-06 08:10:00,48.6,20.0,30.24,South,180,2.0,-999.0,32,0.00,,,0.00,Wunderground v.1.15,2013-03-06 15:10:00,
2013-03-06 08:15:00,50.5,20.9,30.24,SSE,158,1.0,-999.0,31,0.00,,,0.00,Wunderground v.1.15,2013-03-06 15:15:00,
2013-03-06 08:20:00,50.5,20.9,30.24,SSE,158,1.0,-999.0,31,0.00,,,0.00,Wunderground v.1.15,2013-03-06 15:20:00,
2013-03-06 08:25:00,50.5,20.9,30.24,SSE,158,1.0,-999.0,31,0.00,,,0.00,Wunderground v.1.15,2013-03-06 15:25:00,
2013-03-06 08:30:00,50.5,20.9,30.24,SSE,158,1.0,-999.0,31,0.00,,,0.00,Wunderground v.1.15,2013-03-06 15:30:00,
2013-03-06 08:35:00,50.5,20.9,30.24,SSE,158,1.0,-999.0,31,0.00,,,0.00,Wunderground v.1.15,2013-03-06 15:35:00,
2013-03-06 08:40:00,50.5,20.9,30.24,SSE,158,1.0,-999.0,31,0.00,,,0.00,Wunderground v.1.15,2013-03-06 15:40:00,
2013-03-06 08:45:00,53.1,21.6,30.23,SSE,158,1.0,-999.0,29,0.00,,,0.00,Wunderground v.1.15,2013-03-06 15:45:00,
2013-03-06 08:50:00,53.1,21.6,30.23,SSE,158,1.0,-999.0,29,0.00,,,0.00,Wunderground v.1.15,2013-03-06 15:50:00,
2013-03-06 08:55:00,53.1,21.6,30.23,SSE,158,1.0,-999.0,29,0.00,,,0.00,Wunderground v.1.15,2013-03-06 15:55:00,
2013-03-06 09:00:00,53.1,21.6,30.23,SSE,158,1.0,-999.0,29,0.00,,,0.00,Wunderground v.1.15,2013-03-06 16:00:00,
2013-03-06 09:05:00,53.1,21.6,30.23,SSE,158,1.0,-999.0,29,0.00,,,0.00,Wunderground v.1.15,2013-03-06 16:05:00,
2013-03-06 09:10:00,53.1,21.6,30.23,SSE,158,1.0,-999.0,29,0.00,,,0.00,Wunderground v.1.15,2013-03-06 16:10:00,
2013-03-06 09:15:00,54.0,22.4,30.21,South,180,4.0,-999.0,29,0.00,,,0.00,Wunderground v.1.15,2013-03-06 16:15:00,
2013-03-06 09:20:00,54.0,22.4,30.21,South,180,4.0,-999.0,29,0.00,,,0.00,Wunderground v.1.15,2013-03-06 16:20:00,
2013-03-06 09:25:00,54.0,22.4,30.21,South,180,4.0,-999.0,29,0.00,,,0.00,Wunderground v.1.15,2013-03-06 16:25:00,
2013-03-06 09:30:00,54.0,22.4,30.21,South,180,4.0,-999.0,29,0.00,,,0.00,Wunderground v.1.15,2013-03-06 16:30:00,
2013-03-06 09:35:00,54.0,22.4,30.21,South,180,4.0,-999.0,29,0.00,,,0.00,Wunderground v.1.15,2013-03-06 16:35:00,
2013-03-06 09:40:00,54.0,22.4,30.21,South,180,4.0,-999.0,29,0.00,,,0.00,Wunderground v.1.15,2013-03-06 16:40:00,
2013-03-06 09:45:00,55.0,23.3,30.20,South,180,6.0,-999.0,29,0.00,,,0.00,Wunderground v.1.15,2013-03-06 16:45:00,
2013-03-06 09:50:00,55.0,23.3,30.20,South,180,6.0,-999.0,29,0.00,,,0.00,Wunderground v.1.15,2013-03-06 16:50:00,
2013-03-06 09:55:00,55.0,23.3,30.20,South,180,6.0,-999.0,29,0.00,,,0.00,Wunderground v.1.15,2013-03-06 16:55:00,
2013-03-06 10:00:00,55.0,23.3,30.20,South,180,6.0,-999.0,29,0.00,,,0.00,Wunderground v.1.15,2013-03-06 17:00:00,
2013-03-06 10:05:00,55.0,23.3,30.20,South,180,6.0,-999.0,29,0.00,,,0.00,Wunderground v.1.15,2013-03-06 17:05:00,
2013-03-06 10:10:00,55.0,23.3,30.20,South,180,6.0,-999.0,29,0.00,,,0.00,Wunderground v.1.15,2013-03-06 17:10:00,
2013-03-06 10:15:00,55.9,23.2,30.19,South,180,6.0,-999.0,28,0.00,,,0.00,Wunderground v.1.15,2013-03-06 17:15:00,
2013-03-06 10:20:00,55.9,23.2,30.19,South,180,6.0,-999.0,28,0.00,,,0.00,Wunderground v.1.15,2013-03-06 17:20:00,
2013-03-06 10:25:00,55.9,23.2,30.19,South,180,6.0,-999.0,28,0.00,,,0.00,Wunderground v.1.15,2013-03-06 17:25:00,
2013-03-06 10:30:00,55.9,23.2,30.19,South,180,6.0,-999.0,28,0.00,,,0.00,Wunderground v.1.15,2013-03-06 17:30:00,
2013-03-06 10:35:00,55.9,23.2,30.19,South,180,6.0,-999.0,28,0.00,,,0.00,Wunderground v.1.15,2013-03-06 17:35:00,
2013-03-06 10:40:00,55.9,23.2,30.19,South,180,6.0,-999.0,28,0.00,,,0.00,Wunderground v.1.15,2013-03-06 17:40:00,
2013-03-06 10:45:00,57.9,24.1,30.17,South,180,5.0,-999.0,27,0.00,,,0.00,Wunderground v.1.15,2013-03-06 17:45:00,
2013-03-06 10:50:00,57.9,24.1,30.17,South,180,5.0,-999.0,27,0.00,,,0.00,Wunderground v.1.15,2013-03-06 17:50:00,
2013-03-06 10:55:00,57.9,24.1,30.17,South,180,5.0,-999.0,27,0.00,,,0.00,Wunderground v.1.15,2013-03-06 17:55:00,
2013-03-06 11:00:00,57.9,24.1,30.17,South,180,5.0,-999.0,27,0.00,,,0.00,Wunderground v.1.15,2013-03-06 18:00:00,
2013-03-06 11:05:00,57.9,24.1,30.17,South,180,5.0,-999.0,27,0.00,,,0.00,Wunderground v.1.15,2013-03-06 18:05:00,
2013-03-06 11:10:00,57.9,24.1,30.17,South,180,5.0,-999.0,27,0.00,,,0.00,Wunderground v.1.15,2013-03-06 18:10:00,
2013-03-06 11:15:00,59.9,24.9,30.14,SSE,158,4.0,-999.0,26,0.00,,,0.00,Wunderground v.1.15,2013-03-06 18:15:00,
2013-03-06 11:20:00,59.9,24.9,30.14,SSE,158,4.0,-999.0,26,0.00,,,0.00,Wunderground v.1.15,2013-03-06 18:20:00,
2013-03-06 11:25:00,59.9,24.9,30.14,SSE,158,4.0,-999.0,26,0.00,,,0.00,Wunderground v.1.15,2013-03-06 18:25:00,
2013-03-06 11:30:00,59.9,24.9,30.14,SSE,158,4.0,-999.0,26,0.00,,,0.00,Wunderground v.1.15,2013-03-06 18:30:00,
2013-03-06 11:35:00,59.9,24.9,30.14,SSE,158,4.0,-999.0,26,0.00,,,0.00,Wunderground v.1.15,2013-03-06 18:35:00,
2013-03-06 11:40:00,59.9,24.9,30.14,SSE,158,4.0,-999.0,26,0.00,,,0.00,Wunderground v.1.15,2013-03-06 18:40:00,
2013-03-06 11:45:00,61.2,26.0,30.12,SSE,158,5.0,-999.0,26,0.00,,,0.00,Wunderground v.1.15,2013-03-06 18:45:00,
2013-03-06 11:50:00,61.2,26.0,30.12,SSE,158,5.0,-999.0,26,0.00,,,0.00,Wunderground v.1.15,2013-03-06 18:50:00,
2013-03-06 11:55:00,61.2,26.0,30.12,SSE,158,5.0,-999.0,26,0.00,,,0.00,Wunderground v.1.15,2013-03-06 18:55:00,
2013-03-06 12:00:00,61.2,26.0,30.12,SSE,158,5.0,-999.0,26,0.00,,,0.00,Wunderground v.1.15,2013-03-06 19:00:00,
2013-03-06 12:05:00,61.2,26.0,30.12,SSE,158,5.0,-999.0,26,0.00,,,0.00,Wunderground v.1.15,2013-03-06 19:05:00,
2013-03-06 12:10:00,61.2,26.0,30.12,SSE,158,5.0,-999.0,26,0.00,,,0.00,Wunderground v.1.15,2013-03-06 19:10:00,
2013-03-06 12:15:00,61.9,25.7,30.09,South,180,7.0,-999.0,25,0.00,,,0.00,Wunderground v.1.15,2013-03-06 19:15:00,
2013-03-06 12:20:00,61.9,25.7,30.09,South,180,7.0,-999.0,25,0.00,,,0.00,Wunderground v.1.15,2013-03-06 19:20:00,
2013-03-06 12:25:00,61.9,25.7,30.09,South,180,7.0,-999.0,25,0.00,,,0.00,Wunderground v.1.15,2013-03-06 19:25:00,
2013-03-06 12:30:00,61.9,25.7,30.09,South,180,7.0,-999.0,25,0.00,,,0.00,Wunderground v.1.15,2013-03-06 19:30:00,
2013-03-06 12:35:00,61.9,25.7,30.09,South,180,7.0,-999.0,25,0.00,,,0.00,Wunderground v.1.15,2013-03-06 19:35:00,
2013-03-06 12:40:00,61.9,25.7,30.09,South,180,7.0,-999.0,25,0.00,,,0.00,Wunderground v.1.15,2013-03-06 19:40:00,
2013-03-06 12:44:00,61.4,26.2,30.12,South,190,4.0,7.0,26,0.00,,,0.00,Wunderground v.1.15,2013-03-06 19:44:00,
2013-03-06 12:45:00,62.7,25.3,30.07,SSE,158,7.0,-999.0,24,0.00,,,0.00,Wunderground v.1.15,2013-03-06 19:45:00,
2013-03-06 12:50:00,62.7,25.3,30.07,SSE,158,7.0,-999.0,24,0.00,,,0.00,Wunderground v.1.15,2013-03-06 19:50:00,
2013-03-06 12:54:00,61.8,25.6,30.11,SSE,165,8.0,9.0,25,0.00,,,0.00,Wunderground v.1.15,2013-03-06 19:54:00,
2013-03-06 12:55:00,62.7,25.3,30.07,SSE,158,7.0,-999.0,24,0.00,,,0.00,Wunderground v.1.15,2013-03-06 19:55:00,
2013-03-06 13:00:00,62.7,25.3,30.07,SSE,158,7.0,-999.0,24,0.00,,,0.00,Wunderground v.1.15,2013-03-06 20:00:00,
2013-03-06 13:04:00,61.8,25.6,30.10,South,182,6.0,13.0,25,0.00,,,0.00,Wunderground v.1.15,2013-03-06 20:04:00,
2013-03-06 13:14:00,62.0,25.7,30.09,SSW,198,6.0,13.0,25,0.00,,,0.00,Wunderground v.1.15,2013-03-06 20:14:00,
2013-03-06 13:24:00,62.6,25.3,30.08,SSE,153,7.0,13.0,24,0.00,,,0.00,Wunderground v.1.15,2013-03-06 20:24:00,
2013-03-06 13:29:00,63.2,24.7,30.08,SSW,203,7.0,7.0,23,0.00,,,0.00,Wunderground v.1.15,2013-03-06 20:29:00,
2013-03-06 13:39:00,62.7,25.3,30.07,South,175,6.0,19.0,24,0.00,,,0.00,Wunderground v.1.15,2013-03-06 20:39:00,
2013-03-06 13:49:00,63.1,24.7,30.06,SSE,153,8.0,8.0,23,0.00,,,0.00,Wunderground v.1.15,2013-03-06 20:49:00,
2013-03-06 13:54:00,63.3,24.8,30.06,SW,225,8.0,19.0,23,0.00,,,0.00,Wunderground v.1.15,2013-03-06 20:54:00,
2013-03-06 13:59:00,63.4,24.9,30.06,SW,233,8.0,19.0,23,0.00,,,0.00,Wunderground v.1.15,2013-03-06 20:59:00,
2013-03-06 14:04:00,63.2,24.7,30.06,South,190,7.0,19.0,23,0.00,,,0.00,Wunderground v.1.15,2013-03-06 21:04:00,
2013-03-06 14:14:00,64.2,24.5,30.05,SSW,209,7.0,19.0,22,0.00,,,0.00,Wunderground v.1.15,2013-03-06 21:14:00,
2013-03-06 14:24:00,64.3,24.6,30.05,SSW,207,8.0,19.0,22,0.00,,,0.00,Wunderground v.1.15,2013-03-06 21:24:00,
2013-03-06 14:29:00,64.6,24.9,30.05,South,175,8.0,9.0,22,0.00,,,0.00,Wunderground v.1.15,2013-03-06 21:29:00,
2013-03-06 14:34:00,64.5,24.8,30.04,SSE,159,8.0,16.0,22,0.00,,,0.00,Wunderground v.1.15,2013-03-06 21:34:00,
2013-03-06 14:44:00,64.7,23.8,30.04,South,184,6.0,16.0,21,0.00,,,0.00,Wunderground v.1.15,2013-03-06 21:44:00,
2013-03-06 14:54:00,64.7,23.8,30.03,South,178,8.0,8.0,21,0.00,,,0.00,Wunderground v.1.15,2013-03-06 21:54:00,
2013-03-06 14:59:00,64.9,24.0,30.04,South,180,8.0,8.0,21,0.00,,,0.00,Wunderground v.1.15,2013-03-06 21:59:00,
2013-03-06 15:09:00,65.2,24.2,30.03,SSE,155,7.0,7.0,21,0.00,,,0.00,Wunderground v.1.15,2013-03-06 22:09:00,
2013-03-06 15:19:00,65.3,24.3,30.02,SSE,150,7.0,16.0,21,0.00,,,0.00,Wunderground v.1.15,2013-03-06 22:19:00,
2013-03-06 15:29:00,65.5,24.5,30.02,SSE,157,9.0,9.0,21,0.00,,,0.00,Wunderground v.1.15,2013-03-06 22:29:00,
2013-03-06 15:34:00,65.6,24.6,30.02,South,187,8.0,15.0,21,0.00,,,0.00,Wunderground v.1.15,2013-03-06 22:34:00,
2013-03-06 15:44:00,65.7,23.5,30.01,South,188,9.0,15.0,20,0.00,,,0.00,Wunderground v.1.15,2013-03-06 22:44:00,
2013-03-06 15:54:00,65.6,23.4,30.01,South,178,8.0,15.0,20,0.00,,,0.00,Wunderground v.1.15,2013-03-06 22:54:00,
2013-03-06 16:04:00,65.8,23.6,30.00,SSE,168,6.0,15.0,20,0.00,,,0.00,Wunderground v.1.15,2013-03-06 23:04:00,
2013-03-06 16:09:00,65.9,23.7,30.00,South,172,7.0,15.0,20,0.00,,,0.00,Wunderground v.1.15,2013-03-06 23:09:00,
2013-03-06 16:19:00,66.5,24.2,29.99,SSE,154,6.0,15.0,20,0.00,,,0.00,Wunderground v.1.15,2013-03-06 23:19:00,
2013-03-06 16:29:00,66.9,23.3,29.99,South,178,7.0,8.0,19,0.00,,,0.00,Wunderground v.1.15,2013-03-06 23:29:00,
2013-03-06 16:34:00,67.2,23.5,29.99,SSE,168,7.0,14.0,19,0.00,,,0.00,Wunderground v.1.15,2013-03-06 23:34:00,
2013-03-06 16:44:00,66.2,23.9,29.98,South,170,8.0,16.0,20,0.00,,,0.00,Wunderground v.1.15,2013-03-06 23:44:00,
2013-03-06 16:54:00,66.9,23.3,29.98,SE,141,7.0,16.0,19,0.00,,,0.00,Wunderground v.1.15,2013-03-06 23:54:00,
2013-03-06 17:04:00,67.5,22.5,29.98,South,182,6.0,16.0,18,0.00,,,0.00,Wunderground v.1.15,2013-03-07 00:04:00,
2013-03-06 17:14:00,67.4,22.4,29.98,South,190,5.0,16.0,18,0.00,,,0.00,Wunderground v.1.15,2013-03-07 00:14:00,
2013-03-06 17:24:00,66.7,21.8,29.98,SSW,193,5.0,7.0,18,0.00,,,0.00,Wunderground v.1.15,2013-03-07 00:24:00,
2013-03-06 17:29:00,66.5,21.6,29.97,SSE,163,5.0,5.0,18,0.00,,,0.00,Wunderground v.1.15,2013-03-07 00:29:00,
2013-03-06 17:34:00,66.3,21.5,29.98,SSE,163,5.0,13.0,18,0.00,,,0.00,Wunderground v.1.15,2013-03-07 00:34:00,
2013-03-06 17:44:00,66.1,21.3,29.98,SSE,163,4.0,13.0,18,0.00,,,0.00,Wunderground v.1.15,2013-03-07 00:44:00,
2013-03-06 17:49:00,66.1,21.3,29.98,SSE,164,4.0,4.0,18,0.00,,,0.00,Wunderground v.1.15,2013-03-07 00:49:00,
2013-03-06 17:59:00,65.6,20.9,29.98,SSE,165,3.0,3.0,18,0.00,,,0.00,Wunderground v.1.15,2013-03-07 00:59:00,
2013-03-06 18:04:00,65.2,21.9,29.98,South,169,3.0,4.0,19,0.00,,,0.00,Wunderground v.1.15,2013-03-07 01:04:00,
2013-03-06 18:09:00,65.0,22.9,29.98,South,170,4.0,13.0,20,0.00,,,0.00,Wunderground v.1.15,2013-03-07 01:09:00,
2013-03-06 18:19:00,64.4,23.6,29.98,South,172,5.0,13.0,21,0.00,,,0.00,Wunderground v.1.15,2013-03-07 01:19:00,
2013-03-06 18:24:00,64.0,23.2,29.98,SSE,153,6.0,13.0,21,0.00,,,0.00,Wunderground v.1.15,2013-03-07 01:24:00,
2013-03-06 18:29:00,63.7,24.1,29.98,South,170,7.0,7.0,22,0.00,,,0.00,Wunderground v.1.15,2013-03-07 01:29:00,
2013-03-06 18:39:00,63.3,23.8,29.98,South,174,4.0,4.0,22,0.00,,,0.00,Wunderground v.1.15,2013-03-07 01:39:00,
2013-03-06 18:44:00,63.2,23.7,29.98,South,175,4.0,12.0,22,0.00,,,0.00,Wunderground v.1.15,2013-03-07 01:44:00,
2013-03-06 18:49:00,63.0,23.5,29.99,South,175,5.0,5.0,22,0.00,,,0.00,Wunderground v.1.15,2013-03-07 01:49:00,
2013-03-06 19:03:00,62.5,24.2,29.99,South,177,2.0,2.0,23,0.00,,,0.00,Wunderground v.1.15,2013-03-07 02:03:00,
2013-03-06 19:09:00,62.2,23.9,29.99,South,177,2.0,12.0,23,0.00,,,0.00,Wunderground v.1.15,2013-03-07 02:09:00,
2013-03-06 19:19:00,61.5,24.3,30.00,South,177,1.0,12.0,24,0.00,,,0.00,Wunderground v.1.15,2013-03-07 02:19:00,
2013-03-06 19:24:00,61.1,23.0,30.00,South,177,0.0,0.0,23,0.00,,,0.00,Wunderground v.1.15,2013-03-07 02:24:00,
2013-03-06 19:29:00,60.6,22.6,30.00,South,177,1.0,1.0,23,0.00,,,0.00,Wunderground v.1.15,2013-03-07 02:29:00,
2013-03-06 19:39:00,58.5,19.7,30.00,South,177,1.0,9.0,22,0.00,,,0.00,Wunderground v.1.15,2013-03-07 02:39:00,
2013-03-06 19:49:00,57.6,19.0,30.00,South,177,1.0,9.0,22,0.00,,,0.00,Wunderground v.1.15,2013-03-07 02:49:00,
2013-03-06 19:59:00,56.7,18.2,30.00,South,177,1.0,1.0,22,0.00,,,0.00,Wunderground v.1.15,2013-03-07 02:59:00,
2013-03-06 20:09:00,56.2,18.8,30.00,South,177,0.0,9.0,23,0.00,,,0.00,Wunderground v.1.15,2013-03-07 03:09:00,
2013-03-06 20:19:00,55.7,20.4,30.00,South,177,0.0,9.0,25,0.00,,,0.00,Wunderground v.1.15,2013-03-07 03:19:00,
2013-03-06 20:24:00,55.8,20.5,30.01,South,177,0.0,9.0,25,0.00,,,0.00,Wunderground v.1.15,2013-03-07 03:24:00,
2013-03-06 20:34:00,54.9,20.6,30.01,South,177,1.0,1.0,26,0.00,,,0.00,Wunderground v.1.15,2013-03-07 03:34:00,
2013-03-06 20:39:00,54.4,20.2,30.01,South,177,0.0,3.0,26,0.00,,,0.00,Wunderground v.1.15,2013-03-07 03:39:00,
2013-03-06 20:49:00,53.4,20.2,30.01,South,177,0.0,3.0,27,0.00,,,0.00,Wunderground v.1.15,2013-03-07 03:49:00,
2013-03-06 20:59:00,52.2,16.4,30.01,South,177,1.0,1.0,24,0.00,,,0.00,Wunderground v.1.15,2013-03-07 03:59:00,
2013-03-06 21:09:00,51.7,16.0,30.02,South,178,1.0,1.0,24,0.00,,,0.00,Wunderground v.1.15,2013-03-07 04:09:00,
2013-03-06 21:14:00,51.6,15.9,30.02,South,178,1.0,3.0,24,0.00,,,0.00,Wunderground v.1.15,2013-03-07 04:14:00,
2013-03-06 21:24:00,51.3,14.7,30.02,South,178,0.0,3.0,23,0.00,,,0.00,Wunderground v.1.15,2013-03-07 04:24:00,
2013-03-06 21:34:00,50.9,14.4,30.03,South,178,0.0,5.0,23,0.00,,,0.00,Wunderground v.1.15,2013-03-07 04:34:00,
2013-03-06 21:44:00,50.3,13.9,30.04,South,178,0.0,5.0,23,0.00,,,0.00,Wunderground v.1.15,2013-03-07 04:44:00,
2013-03-06 21:49:00,49.9,13.5,30.04,South,178,1.0,5.0,23,0.00,,,0.00,Wunderground v.1.15,2013-03-07 04:49:00,
2013-03-06 21:59:00,48.8,12.6,30.04,South,183,3.0,5.0,23,0.00,,,0.00,Wunderground v.1.15,2013-03-07 04:59:00,
2013-03-06 22:04:00,48.6,13.4,30.04,South,183,2.0,5.0,24,0.00,,,0.00,Wunderground v.1.15,2013-03-07 05:04:00,
2013-03-06 22:09:00,48.4,13.2,30.05,South,183,0.0,5.0,24,0.00,,,0.00,Wunderground v.1.15,2013-03-07 05:09:00,
2013-03-06 22:14:00,48.3,13.1,30.05,South,183,0.0,5.0,24,0.00,,,0.00,Wunderground v.1.15,2013-03-07 05:14:00,
2013-03-06 22:24:00,47.9,12.8,30.05,South,183,0.0,5.0,24,0.00,,,0.00,Wunderground v.1.15,2013-03-07 05:24:00,
2013-03-06 22:29:00,48.0,12.9,30.05,South,183,1.0,1.0,24,0.00,,,0.00,Wunderground v.1.15,2013-03-07 05:29:00,
2013-03-06 22:39:00,49.0,12.7,30.05,South,183,1.0,1.0,23,0.00,,,0.00,Wunderground v.1.15,2013-03-07 05:39:00,
2013-03-06 22:44:00,49.4,12.1,30.05,South,183,0.0,7.0,22,0.00,,,0.00,Wunderground v.1.15,2013-03-07 05:44:00,
2013-03-06 22:54:00,50.8,13.3,30.05,South,183,0.0,7.0,22,0.00,,,0.00,Wunderground v.1.15,2013-03-07 05:54:00,
2013-03-06 23:04:00,49.4,13.1,30.05,South,183,0.0,7.0,23,0.00,,,0.00,Wunderground v.1.15,2013-03-07 06:04:00,
2013-03-06 23:14:00,48.2,13.0,30.05,South,183,0.0,7.0,24,0.00,,,0.00,Wunderground v.1.15,2013-03-07 06:14:00,
2013-03-06 23:24:00,47.1,13.0,30.05,South,183,1.0,7.0,25,0.00,,,0.00,Wunderground v.1.15,2013-03-07 06:24:00,
2013-03-06 23:34:00,46.1,13.1,30.05,South,183,0.0,3.0,26,0.00,,,0.00,Wunderground v.1.15,2013-03-07 06:34:00,
2013-03-06 23:44:00,46.1,13.1,30.06,South,183,0.0,3.0,26,0.00,,,0.00,Wunderground v.1.15,2013-03-07 06:44:00,
2013-03-06 23:54:00,46.3,12.3,30.06,South,183,0.0,3.0,25,0.00,,,0.00,Wunderground v.1.15,2013-03-07 06:54:00,
2013-03-06 23:59:00,46.7,13.6,30.06,South,183,0.0,3.0,26,0.00,,,0.00,Wunderground v.1.15,2013-03-07 06:59:00,